Radiation Dose at Monitoring Post of Fukushima Daini Nuclear Power Station
Date,Time,MP-1(microSv/h),MP-2(microSv/h),MP-3(microSv/h),MP-4(microSv/h),MP-5(microSv/h),MP-6(microSv/h),MP-7(microSv/h),Wind Direction,Wind Velocity(m/s),Rain
2018/09/27,00:00,0.301,0.186,0.301,0.291,0.278,0.151,0.092,north-northeast,6.4,No
2018/09/27,00:10,0.305,0.188,0.302,0.292,0.281,0.150,0.092,north-northeast,4.7,No
2018/09/27,00:20,0.303,0.187,0.301,0.292,0.280,0.152,0.092,northeast,6.9,Yes
2018/09/27,00:30,0.306,0.187,0.302,0.291,0.280,0.150,0.092,northeast,6.8,Yes
2018/09/27,00:40,0.302,0.187,0.301,0.292,0.281,0.151,0.093,northeast,10.0,Yes
2018/09/27,00:50,0.305,0.189,0.303,0.291,0.278,0.150,0.092,northeast,8.8,Yes
2018/09/27,01:00,0.304,0.188,0.301,0.292,0.282,0.150,0.093,north-northeast,9.3,Yes
2018/09/27,01:10,0.305,0.190,0.304,0.292,0.279,0.152,0.094,northeast,9.0,Yes
2018/09/27,01:20,0.305,0.190,0.303,0.292,0.280,0.152,0.095,northeast,9.5,Yes
2018/09/27,01:30,0.305,0.190,0.304,0.291,0.280,0.152,0.094,northeast,10.4,Yes
2018/09/27,01:40,0.305,0.190,0.303,0.291,0.280,0.153,0.094,northeast,10.9,Yes
2018/09/27,01:50,0.307,0.190,0.303,0.292,0.282,0.153,0.095,northeast,9.6,Yes
2018/09/27,02:00,0.303,0.190,0.303,0.291,0.279,0.153,0.095,north-northeast,9.5,Yes
2018/09/27,02:10,0.307,0.190,0.301,0.294,0.280,0.152,0.095,north-northeast,9.0,Yes
2018/09/27,02:20,0.304,0.191,0.302,0.291,0.279,0.152,0.095,north-northeast,9.0,Yes
2018/09/27,02:30,0.307,0.190,0.302,0.294,0.282,0.152,0.095,northeast,8.3,Yes
2018/09/27,02:40,0.305,0.191,0.303,0.291,0.279,0.152,0.095,north-northeast,9.8,Yes
2018/09/27,02:50,0.306,0.189,0.303,0.292,0.282,0.151,0.094,north-northeast,10.0,Yes
2018/09/27,03:00,0.305,0.190,0.301,0.291,0.280,0.151,0.095,north-northeast,8.6,Yes
2018/09/27,03:10,0.306,0.190,0.304,0.291,0.280,0.151,0.094,north-northeast,7.5,Yes
2018/09/27,03:20,0.305,0.189,0.300,0.291,0.279,0.151,0.093,north-northeast,11.5,Yes
2018/09/27,03:30,0.306,0.189,0.301,0.290,0.279,0.150,0.094,north-northeast,11.2,Yes
2018/09/27,03:40,0.304,0.189,0.302,0.291,0.279,0.150,0.094,north-northeast,10.1,No
2018/09/27,03:50,0.303,0.188,0.303,0.290,0.278,0.151,0.093,north,8.2,No
2018/09/27,04:00,0.305,0.189,0.301,0.290,0.279,0.150,0.092,north,6.6,No
2018/09/27,04:10,0.303,0.187,0.300,0.288,0.277,0.150,0.093,north,6.2,Yes
2018/09/27,04:20,0.305,0.188,0.302,0.290,0.279,0.149,0.093,north,7.3,Yes
2018/09/27,04:30,0.304,0.187,0.300,0.289,0.277,0.151,0.093,north,8.1,Yes
2018/09/27,04:40,0.305,0.189,0.301,0.288,0.278,0.150,0.093,north,8.7,Yes
2018/09/27,04:50,0.302,0.188,0.299,0.290,0.278,0.150,0.093,north,8.6,Yes
2018/09/27,05:00,0.304,0.188,0.298,0.288,0.276,0.150,0.094,-,CALM,Yes
2018/09/27,05:10,0.303,0.189,0.299,0.289,0.278,0.150,0.094,north-northwest,8.4,Yes
2018/09/27,05:20,0.302,0.186,0.297,0.287,0.277,0.150,0.094,-,CALM,Yes
2018/09/27,05:30,0.303,0.188,0.300,0.287,0.278,0.149,0.094,north,10.6,Yes
2018/09/27,05:40,0.300,0.185,0.296,0.287,0.276,0.150,0.093,north,10.1,Yes
2018/09/27,05:50,0.302,0.186,0.298,0.285,0.278,0.149,0.093,north,9.0,Yes
2018/09/27,06:00,0.300,0.187,0.298,0.287,0.277,0.149,0.094,north-northwest,7.6,Yes
2018/09/27,06:10,0.300,0.186,0.297,0.286,0.278,0.149,0.093,north-northwest,7.4,Yes
2018/09/27,06:20,0.302,0.188,0.300,0.288,0.280,0.150,0.095,-,CALM,Yes
2018/09/27,06:30,0.300,0.189,0.298,0.288,0.279,0.152,0.095,north-northwest,10.1,Yes
2018/09/27,06:40,0.302,0.188,0.298,0.287,0.279,0.151,0.095,north-northwest,10.1,Yes
2018/09/27,06:50,0.300,0.189,0.299,0.287,0.278,0.151,0.096,-,CALM,Yes
2018/09/27,07:00,0.299,0.187,0.298,0.284,0.278,0.150,0.095,-,CALM,Yes
2018/09/27,07:10,0.300,0.188,0.297,0.287,0.279,0.150,0.095,-,CALM,Yes
2018/09/27,07:20,0.298,0.187,0.297,0.285,0.278,0.150,0.096,north-northwest,7.8,Yes
2018/09/27,07:30,0.300,0.187,0.297,0.286,0.279,0.150,0.095,north-northwest,8.1,Yes
2018/09/27,07:40,0.298,0.187,0.297,0.284,0.278,0.149,0.095,north-northwest,9.2,Yes
2018/09/27,07:50,0.298,0.186,0.295,0.286,0.279,0.149,0.094,north-northwest,9.3,Yes
2018/09/27,08:00,0.298,0.186,0.298,0.286,0.277,0.149,0.093,north-northwest,9.5,Yes
2018/09/27,08:10,0.298,0.185,0.296,0.284,0.278,0.148,0.094,north-northwest,9.6,Yes
2018/09/27,08:20,0.298,0.185,0.295,0.287,0.277,0.149,0.092,north-northwest,10.1,No
2018/09/27,08:30,0.296,0.186,0.297,0.283,0.279,0.147,0.093,north-northwest,9.2,No
2018/09/27,08:40,0.297,0.185,0.296,0.286,0.277,0.148,0.092,north-northwest,10.6,No
2018/09/27,08:50,0.296,0.185,0.296,0.285,0.277,0.148,0.092,north-northwest,10.4,Yes
2018/09/27,09:00,0.298,0.185,0.295,0.283,0.279,0.147,0.092,north-northwest,7.6,Yes
2018/09/27,09:10,0.297,0.186,0.297,0.287,0.277,0.148,0.094,north-northwest,10.0,Yes
2018/09/27,09:20,0.298,0.189,0.297,0.285,0.278,0.150,0.095,-,CALM,Yes
2018/09/27,09:30,0.300,0.188,0.297,0.287,0.278,0.151,0.095,-,CALM,Yes
2018/09/27,09:40,0.299,0.189,0.301,0.287,0.281,0.150,0.096,north,9.2,Yes
2018/09/27,09:50,0.301,0.188,0.297,0.287,0.279,0.150,0.095,north,8.5,Yes
2018/09/27,10:00,0.298,0.188,0.299,0.287,0.279,0.151,0.096,-,CALM,Yes
2018/09/27,10:10,0.300,0.188,0.297,0.286,0.278,0.151,0.097,north,9.0,Yes
2018/09/27,10:20,0.299,0.188,0.298,0.286,0.279,0.151,0.095,north,8.1,Yes
2018/09/27,10:30,0.298,0.188,0.298,0.286,0.278,0.149,0.095,north-northwest,8.1,Yes
2018/09/27,10:40,0.299,0.187,0.297,0.287,0.278,0.149,0.094,north,8.1,Yes
2018/09/27,10:50,0.297,0.186,0.297,0.285,0.278,0.149,0.095,north,8.1,Yes
2018/09/27,11:00,0.298,0.187,0.296,0.287,0.277,0.148,0.095,north-northwest,8.5,Yes
2018/09/27,11:10,0.297,0.187,0.298,0.284,0.278,0.150,0.095,north-northwest,7.8,Yes
2018/09/27,11:20,0.298,0.186,0.294,0.286,0.277,0.149,0.095,north,8.3,Yes
2018/09/27,11:30,0.297,0.187,0.297,0.284,0.279,0.149,0.095,north,7.8,Yes
2018/09/27,11:40,0.297,0.187,0.296,0.286,0.276,0.151,0.096,north-northwest,8.2,Yes
2018/09/27,11:50,0.298,0.187,0.295,0.285,0.279,0.149,0.095,north-northwest,7.2,Yes
2018/09/27,12:00,0.297,0.188,0.295,0.285,0.277,0.149,0.096,north-northwest,7.8,Yes
2018/09/27,12:10,0.297,0.187,0.295,0.286,0.279,0.150,0.096,north-northwest,7.7,Yes
2018/09/27,12:20,0.297,0.188,0.296,0.285,0.278,0.149,0.095,north-northwest,7.0,Yes
2018/09/27,12:30,0.298,0.187,0.295,0.286,0.278,0.150,0.095,north,7.3,Yes
2018/09/27,12:40,0.296,0.187,0.297,0.286,0.278,0.150,0.096,north-northwest,7.4,Yes
2018/09/27,12:50,0.298,0.187,0.295,0.286,0.279,0.150,0.096,north-northwest,6.8,Yes
2018/09/27,13:00,0.296,0.186,0.298,0.283,0.279,0.150,0.096,north-northwest,6.8,Yes
2018/09/27,13:10,0.298,0.188,0.295,0.286,0.279,0.150,0.096,north-northwest,7.3,Yes
2018/09/27,13:20,0.296,0.187,0.294,0.284,0.279,0.150,0.096,north-northwest,6.4,Yes
2018/09/27,13:30,0.297,0.187,0.294,0.285,0.278,0.149,0.096,north,6.3,Yes
2018/09/27,13:40,0.294,0.186,0.294,0.283,0.278,0.150,0.096,north-northwest,6.0,Yes
2018/09/27,13:50,0.297,0.186,0.296,0.286,0.277,0.149,0.095,north-northwest,5.6,Yes
2018/09/27,14:00,0.297,0.187,0.293,0.283,0.277,0.150,0.094,north-northwest,6.6,Yes
2018/09/27,14:10,0.294,0.185,0.296,0.284,0.277,0.148,0.095,north-northwest,7.6,Yes
2018/09/27,14:20,0.295,0.186,0.294,0.285,0.277,0.148,0.094,north,7.9,Yes
2018/09/27,14:30,0.294,0.185,0.295,0.285,0.277,0.148,0.094,north-northwest,7.5,Yes
2018/09/27,14:40,0.296,0.186,0.295,0.285,0.278,0.149,0.094,north-northwest,8.2,Yes
2018/09/27,14:50,0.295,0.185,0.295,0.284,0.277,0.148,0.093,north-northwest,7.7,Yes
2018/09/27,15:00,0.296,0.187,0.294,0.285,0.280,0.148,0.093,north-northwest,8.2,Yes
2018/09/27,15:10,0.294,0.186,0.295,0.284,0.276,0.149,0.095,north-northwest,8.2,Yes
2018/09/27,15:20,0.297,0.187,0.297,0.285,0.279,0.147,0.093,north-northwest,7.7,Yes
2018/09/27,15:30,0.296,0.187,0.293,0.285,0.277,0.148,0.093,north-northwest,7.3,Yes
2018/09/27,15:40,0.298,0.186,0.296,0.284,0.278,0.149,0.094,north-northwest,6.5,Yes
2018/09/27,15:50,0.295,0.187,0.296,0.284,0.277,0.148,0.095,north-northwest,6.3,Yes
2018/09/27,16:00,0.295,0.187,0.296,0.286,0.280,0.149,0.094,north-northwest,7.0,No
2018/09/27,16:10,0.296,0.187,0.295,0.285,0.276,0.148,0.094,north,6.3,No
2018/09/27,16:20,0.296,0.185,0.296,0.285,0.277,0.148,0.093,-,CALM,No
2018/09/27,16:30,0.295,0.186,0.293,0.284,0.277,0.147,0.093,north-northwest,7.3,No
2018/09/27,16:40,0.295,0.184,0.295,0.286,0.279,0.146,0.092,north,7.5,No
2018/09/27,16:50,0.296,0.185,0.293,0.283,0.275,0.147,0.093,north,8.4,No
2018/09/27,17:00,0.295,0.183,0.297,0.286,0.278,0.146,0.092,north,8.1,No
2018/09/27,17:10,0.295,0.184,0.294,0.284,0.274,0.147,0.091,north-northwest,8.8,No
2018/09/27,17:20,0.292,0.183,0.295,0.285,0.277,0.147,0.091,north-northwest,7.6,No
2018/09/27,17:30,0.294,0.184,0.295,0.284,0.275,0.145,0.091,north-northwest,7.4,No
2018/09/27,17:40,0.294,0.183,0.294,0.285,0.278,0.145,0.091,north,6.7,No
2018/09/27,17:50,0.295,0.183,0.295,0.283,0.276,0.146,0.091,north-northwest,6.2,No
2018/09/27,18:00,0.294,0.184,0.293,0.286,0.277,0.146,0.091,north-northwest,6.6,No
2018/09/27,18:10,0.295,0.184,0.296,0.285,0.274,0.146,0.090,north-northwest,6.6,No
2018/09/27,18:20,0.294,0.183,0.295,0.285,0.276,0.146,0.091,north-northwest,6.9,No
2018/09/27,18:30,0.296,0.183,0.296,0.283,0.275,0.146,0.090,north-northwest,6.8,No
2018/09/27,18:40,0.293,0.184,0.293,0.285,0.276,0.146,0.091,north,5.9,No
2018/09/27,18:50,0.294,0.184,0.295,0.285,0.275,0.146,0.090,north-northwest,5.8,No
2018/09/27,19:00,0.293,0.183,0.295,0.284,0.275,0.146,0.090,north-northwest,5.3,No
2018/09/27,19:10,0.296,0.183,0.296,0.285,0.276,0.146,0.092,north-northwest,5.4,No
2018/09/27,19:20,0.295,0.183,0.294,0.284,0.275,0.147,0.091,north-northwest,5.7,No
2018/09/27,19:30,0.295,0.183,0.295,0.285,0.277,0.145,0.091,north-northwest,5.4,No
2018/09/27,19:40,0.294,0.183,0.296,0.283,0.275,0.146,0.091,north,6.4,No
2018/09/27,19:50,0.295,0.184,0.295,0.287,0.277,0.144,0.090,north,7.5,No
2018/09/27,20:00,0.296,0.183,0.297,0.284,0.274,0.146,0.091,north,7.8,No
2018/09/27,20:10,0.295,0.182,0.295,0.286,0.277,0.145,0.091,north,7.6,No
2018/09/27,20:20,0.296,0.183,0.295,0.284,0.275,0.146,0.091,north,5.8,No
2018/09/27,20:30,0.295,0.184,0.296,0.286,0.276,0.146,0.091,north,6.2,No
2018/09/27,20:40,0.296,0.184,0.295,0.284,0.275,0.146,0.091,north,9.0,No
2018/09/27,20:50,0.293,0.183,0.295,0.284,0.276,0.146,0.091,north,9.5,No
2018/09/27,21:00,0.295,0.184,0.294,0.287,0.276,0.145,0.091,north,8.9,No
2018/09/27,21:10,0.295,0.184,0.296,0.286,0.275,0.147,0.091,north,7.4,No
2018/09/27,21:20,0.297,0.183,0.295,0.286,0.277,0.146,0.091,north,8.5,No
2018/09/27,21:30,0.296,0.185,0.295,0.285,0.275,0.146,0.090,north,8.7,No
2018/09/27,21:40,0.295,0.183,0.296,0.285,0.278,0.147,0.091,north,9.2,No
2018/09/27,21:50,0.297,0.184,0.295,0.285,0.276,0.147,0.090,north,9.5,No
2018/09/27,22:00,0.295,0.185,0.297,0.286,0.275,0.145,0.092,north-northwest,7.8,No
2018/09/27,22:10,0.298,0.183,0.295,0.286,0.277,0.145,0.091,north,7.6,No
2018/09/27,22:20,0.294,0.185,0.297,0.286,0.275,0.146,0.092,north,7.2,No
2018/09/27,22:30,0.297,0.184,0.295,0.287,0.277,0.146,0.092,north,7.6,No
2018/09/27,22:40,0.295,0.183,0.297,0.285,0.276,0.147,0.091,north,8.4,No
2018/09/27,22:50,0.296,0.184,0.296,0.285,0.278,0.146,0.091,north,8.1,No
2018/09/27,23:00,0.296,0.184,0.296,0.286,0.276,0.147,0.091,north-northwest,7.5,No
2018/09/27,23:10,0.295,0.184,0.297,0.287,0.277,0.147,0.091,north,7.6,No
2018/09/27,23:20,0.298,0.184,0.296,0.287,0.278,0.147,0.091,north,8.9,No
2018/09/27,23:30,0.295,0.183,0.297,0.286,0.276,0.146,0.091,north,8.4,No
2018/09/27,23:40,0.298,0.185,0.296,0.287,0.278,0.147,0.091,north-northwest,7.4,No
2018/09/27,23:50,0.296,0.183,0.297,0.285,0.275,0.147,0.092,north-northwest,7.3,No
